Stations météo

Publicité
Strasbourg, France (7190): Température de l'air & dewpoint: 20.05.2018 23:00:00 - 26.05.2018 23:00:00 (CEST)Strasbourg, France (7190): Température de l'air 5cm: 20.05.2018 23:00:00 - 26.05.2018 23:00:00 (CEST)Strasbourg, France (7190): Température de l'air -20cm & Température de l'air -100cm: 20.05.2018 23:00:00 - 26.05.2018 23:00:00 (CEST)Strasbourg, France (7190): Vitesse du vent & gusts: 20.05.2018 23:00:00 - 26.05.2018 23:00:00 (CEST)Strasbourg, France (7190): Direction du vent: 20.05.2018 23:00:00 - 26.05.2018 23:00:00 (CEST)Strasbourg, France (7190): reduced air pressure: 20.05.2018 23:00:00 - 26.05.2018 23:00:00 (CEST)Strasbourg, France (7190): visibility: 20.05.2018 23:00:00 - 26.05.2018 23:00:00 (CEST)Strasbourg, France (7190): Ensoleillement: 20.05.2018 23:00:00 - 26.05.2018 23:00:00 (CEST)Strasbourg, France (7190): Quantités de précipitations: 20.05.2018 23:00:00 - 26.05.2018 23:00:00 (CEST)
Date & Time tt [°C] td [°C] tt 5cm [°C] tt -20cm [°C] tt -100cm [°C] ff [km/h] ff [knt] fx [km/h] fx [knt] dd ppp [hPa] vv [km] sd [min] rr [mm]
26.05.2018 23:00:00 21,7 17,1 19,8 25,0 17,1 2 1 11 6 SSW 1018,7 22 0 0,0
26.05.2018 22:00:00 23,9 16,9 22,0 25,1 17,1 8 4 10 5 NNE 1018,8 18 0 0,0
26.05.2018 21:00:00 25,3 15,6 23,1 25,1 17,1 6 4 12 7 ENE 1018,1 41 14 0,0
26.05.2018 20:00:00 26,7 16,3 26,5 25,0 17,1 10 6 18 10 NNE 1017,6 29 47 0,0
26.05.2018 19:00:00 28,0 16,6 29,2 24,8 17,1 9 5 18 10 NNE 1017,5 47 50 0,0
26.05.2018 18:00:00 28,2 16,5 31,4 24,6 17,1 9 5 19 10 NNW 1017,9 16 60 0,0
26.05.2018 17:00:00 27,0 16,9 25,8 24,3 17,1 11 6 25 13 WNW 1018,1 53 23 0,0
26.05.2018 16:00:00 26,8 17,3 26,6 23,9 17,0 9 5 13 7 W 1018,2 57 0 0,0
26.05.2018 15:00:00 28,2 15,5 29,4 23,3 17,0 5 3 18 10 NNE 1017,9 52 51 0,0
26.05.2018 14:00:00 28,5 15,8 34,7 22,7 17,0 6 4 22 12 ENE 1018,3 22 60 0,0
26.05.2018 13:00:00 26,8 16,7 32,4 22,3 17,0 8 5 17 9 NNE 1018,4 15 60 0,0
26.05.2018 12:00:00 25,2 17,4 31,0 22,1 17,0 7 4 15 8 NNW 1018,5 16 60 0,0
26.05.2018 11:00:00 22,9 16,9 28,4 21,9 17,0 5 3 14 8 N 1018,6 20 60 0,0
26.05.2018 10:00:00 21,1 16,1 26,2 21,9 17,0 7 4 15 8 NNE 1018,5 17 60 0,0
26.05.2018 09:00:00 19,3 15,2 23,4 22,1 17,0 7 4 16 9 N 1018,7 8 60 0,0
26.05.2018 08:00:00 18,2 15,4 17,1 22,3 16,9 10 6 15 8 N 1018,3 13 37 0,0
26.05.2018 07:00:00 16,3 14,8 14,9 22,6 16,9 7 4 13 7 NNW 1018,4 13 20 0,0
26.05.2018 06:00:00 15,7 14,1 14,1 22,9 16,9 8 5 10 6 N 1017,8 13 0 0,0
26.05.2018 05:00:00 15,8 14,0 14,0 23,1 16,9 6 3 10 5 NNW 1017,4 13 0 0,0
26.05.2018 04:00:00 16,3 14,3 14,6 23,4 16,9 7 4 10 5 N 1017,3 13 0 0,0
26.05.2018 03:00:00 17,0 14,5 15,5 23,7 16,9 6 3 10 5 NNW 1017,4 14 0 0,0
26.05.2018 02:00:00 17,4 15,0 16,1 24,0 16,9 6 3 10 6 NW 1017,3 14 0 0,0
26.05.2018 01:00:00 18,0 14,9 16,8 24,2 16,9 6 3 11 6 WNW 1017,5 15 0 0,0
26.05.2018 00:00:00 18,4 15,5 17,0 24,5 16,9 11 6 13 7 NNW 1017,2 18 0 0,0
25.05.2018 23:00:00 19,9 14,5 17,0 24,7 16,9 5 3 14 7 NNE 1016,9 30 0 0,0
25.05.2018 22:00:00 20,7 14,1 19,0 24,8 16,8 9 5 22 12 N 1017,1 53 0 0,0
25.05.2018 21:00:00 23,3 11,0 20,4 24,8 16,9 10 5 17 9 NNE 1016,4 60 20 0,0
25.05.2018 20:00:00 25,2 11,0 25,8 24,6 16,8 11 6 19 10 NE 1016,1 52 60 0,0
25.05.2018 19:00:00 26,0 11,4 27,8 24,3 16,8 13 7 22 12 NE 1015,8 39 60 0,0
25.05.2018 18:00:00 27,4 13,7 31,6 23,9 16,8 11 6 22 12 NNE 1015,9 37 60 0,0
25.05.2018 17:00:00 26,7 13,8 31,9 23,3 16,8 10 5 24 13 NE 1016,2 38 60 0,0
25.05.2018 16:00:00 26,9 14,0 33,1 22,7 16,8 13 7 27 14 N 1016,5 37 60 0,0
25.05.2018 15:00:00 26,5 13,9 32,7 22,1 16,8 8 4 25 13 N 1016,7 34 60 0,0
25.05.2018 14:00:00 25,5 13,0 31,9 21,5 16,8 11 6 23 12 NNW 1017,0 25 60 0,0
25.05.2018 13:00:00 24,8 14,9 30,8 21,0 16,7 5 3 19 10 N 1017,5 20 60 0,0
25.05.2018 12:00:00 23,8 17,5 29,9 20,7 16,8 6 3 16 9 N 1017,9 14 60 0,0
25.05.2018 11:00:00 22,3 16,3 28,1 20,6 16,8 5 3 11 6 NNW 1018,1 15 60 0,0
25.05.2018 10:00:00 20,2 15,6 26,2 20,5 16,7 6 3 10 6 N 1018,2 13 60 0,0
25.05.2018 09:00:00 17,8 15,8 17,5 20,6 16,7 4 2 11 6 NNE 1018,3 7 27 0,0
25.05.2018 08:00:00 15,4 14,9 15,5 20,8 16,7 3 2 8 4 ESE 1018,2 0,4 9 0,2
25.05.2018 07:00:00 15,3 14,5 11,6 21,1 16,7 2 1 5 3 ESE 1017,8 7 56 0,0
25.05.2018 06:00:00 12,8 12,2 10,6 21,4 16,7 3 1 6 3 ESE 1017,8 0,8 0 0,0
25.05.2018 05:00:00 13,3 12,7 10,9 21,7 16,7 4 2 13 7 SW 1017,7 12 0 0,0
25.05.2018 04:00:00 13,9 13,3 11,2 21,9 16,7 5 3 7 4 SW 1017,7 11 0 0,0
25.05.2018 03:00:00 14,4 13,8 11,9 22,2 16,7 4 2 9 5 SSW 1018,0 13 0 0,0
25.05.2018 02:00:00 15,1 14,1 12,2 22,5 16,7 4 2 5 3 WSW 1017,8 12 0 0,0
25.05.2018 01:00:00 15,4 14,3 13,5 22,7 16,7 2 1 10 6 WNW 1017,8 14 0 0,0
25.05.2018 00:00:00 16,8 14,8 15,9 23,0 16,7 6 3 15 8 NW 1017,5 28 0 0,0
24.05.2018 23:00:00 18,1 15,9 17,2 23,1 16,6 10 5 17 9 NNW 1017,5 34 0 0,0
24.05.2018 22:00:00 18,7 16,3 18,0 23,3 16,6 10 5 18 10 NW 1017,2 30 0 0,0
24.05.2018 21:00:00 20,1 15,3 19,6 23,4 16,6 7 4 26 14 N 1016,5 19 0 0,0
24.05.2018 20:00:00 21,3 16,7 21,1 23,3 16,6 9 5 18 10 NW 1015,9 46 0 0,0
24.05.2018 19:00:00 22,5 15,6 23,0 23,2 16,6 13 7 22 12 NW 1015,5 38 3 0,0
24.05.2018 18:00:00 22,6 14,7 23,6 22,8 16,6 11 6 21 11 NW 1015,5 29 10 0,0
24.05.2018 17:00:00 24,1 16,1 27,8 22,3 16,6 11 6 17 9 NNW 1015,5 20 48 0,0
24.05.2018 16:00:00 23,5 15,5 30,5 21,8 16,6 8 5 23 13 NW 1015,6 34 60 0,0
24.05.2018 15:00:00 23,0 15,8 25,1 21,3 16,5 11 6 31 17 NNW 1016,4 33 46 0,0
24.05.2018 14:00:00 23,7 15,7 25,7 20,8 16,5 6 3 16 9 S 1016,9 18 53 0,0
24.05.2018 13:00:00 22,1 16,1 25,1 20,5 16,5 6 3 19 10 SSE 1017,4 18 53 0,0
24.05.2018 12:00:00 20,6 16,4 22,1 20,4 16,5 8 4 18 10 S 1018,1 14 18 0,0
24.05.2018 11:00:00 19,2 16,6 18,2 20,3 16,5 8 4 14 8 S 1018,2 11 14 0,0
24.05.2018 10:00:00 17,9 16,1 18,2 20,3 16,5 8 4 11 6 S 1018,5 2,8 0 0,2
24.05.2018 09:00:00 18,1 15,5 19,5 20,4 16,5 4 2 7 4 N 1018,5 9 16 0,0
24.05.2018 08:00:00 16,9 15,9 16,5 20,5 16,5 6 3 11 6 WNW 1018,2 7 9 0,0
24.05.2018 07:00:00 16,0 15,5 15,4 20,7 16,5 5 3 8 4 WNW 1018,1 3,5 0 0,0
24.05.2018 06:00:00 15,6 15,1 14,8 20,8 16,5 3 1 6 4 SSW 1017,8 0,3 0 0,0
24.05.2018 05:00:00 15,5 15,0 14,9 21,0 16,5 3 1 11 6 SSE 1017,6 2,8 0 0,0
24.05.2018 04:00:00 15,9 15,3 15,4 21,3 16,5 5 3 10 6 SSW 1018,0 3,0 0 1,4
24.05.2018 03:00:00 15,7 14,9 14,5 21,5 16,4 9 5 11 6 SW 1018,4 4,1 0 0,2
24.05.2018 02:00:00 15,6 14,0 15,1 21,7 16,4 8 5 17 9 NW 1017,8 27 0 0,0
24.05.2018 01:00:00 16,8 15,5 16,0 21,9 16,4 9 5 23 13 NNW 1017,8 10 0 0,3
24.05.2018 00:00:00 16,9 15,4 16,2 22,2 16,4 11 6 23 12 W 1018,3 14 0 1,2
23.05.2018 23:00:00 17,1 15,4 15,4 22,4 16,4 15 8 24 13 NNW 1017,5 2,1 0 8,1
23.05.2018 22:00:00 17,5 15,5 16,4 22,6 16,4 16 8 23 12 ENE 1017,6 1,3 0 6,5
23.05.2018 21:00:00 20,3 13,7 18,2 22,6 16,4 3 2 14 7 E 1016,7 20 0 0,0
23.05.2018 20:00:00 22,3 14,2 21,7 22,6 16,4 7 4 15 8 NNE 1016,3 36 0 0,0
23.05.2018 19:00:00 21,7 13,3 21,3 22,4 16,4 5 3 17 9 E 1015,6 45 2 0,0
23.05.2018 18:00:00 22,2 13,0 23,0 22,2 16,4 11 6 21 11 E 1016,1 27 25 0,0
23.05.2018 17:00:00 23,8 13,9 23,1 22,0 16,4 4 2 14 7 E 1015,9 46 12 0,0
23.05.2018 16:00:00 22,3 14,4 23,7 21,7 16,4 5 3 29 16 ESE 1016,2 30 0 0,0
23.05.2018 15:00:00 23,4 14,4 27,0 21,3 16,3 12 7 26 14 NNE 1016,6 12 26 0,0
23.05.2018 14:00:00 21,9 14,8 26,3 20,8 16,3 12 6 29 15 NE 1017,2 14 31 0,0
23.05.2018 13:00:00 21,7 15,1 25,9 20,6 16,3 14 7 27 14 NNE 1017,3 9 44 0,0
23.05.2018 12:00:00 21,0 15,1 24,0 20,4 16,3 8 4 18 10 N 1017,5 7 20 0,0
23.05.2018 11:00:00 19,6 14,6 21,1 20,4 16,3 8 4 17 9 NE 1017,6 18 0 0,0
23.05.2018 10:00:00 18,1 14,2 19,1 20,4 16,3 3 1 9 5 SSE 1017,5 16 0 0,0
23.05.2018 09:00:00 16,6 14,2 16,7 20,5 16,3 4 2 10 6 SSE 1017,3 15 0 0,0
23.05.2018 08:00:00 15,8 13,6 16,3 20,6 16,3 6 4 10 5 SW 1017,0 16 0 0,0
23.05.2018 07:00:00 14,8 13,7 13,2 20,8 16,3 3 2 6 3 SSE 1016,4 18 50 0,0
23.05.2018 06:00:00 14,1 13,1 12,7 21,0 16,3 3 2 10 5 SSE 1015,7 12 0 0,0
23.05.2018 05:00:00 14,0 12,9 12,8 21,2 16,3 4 2 9 5 SE 1015,4 14 0 0,0
23.05.2018 04:00:00 14,9 13,3 13,9 21,5 16,3 5 3 11 6 SSW 1015,3 20 0 0,0
23.05.2018 03:00:00 15,2 13,7 14,6 21,7 16,3 7 4 14 7 S 1014,8 20 0 0,0
23.05.2018 02:00:00 15,7 13,7 14,7 21,9 16,2 3 2 11 6 SSW 1014,9 24 0 0,0
23.05.2018 01:00:00 15,9 13,9 14,1 22,1 16,2 9 5 14 8 WNW 1014,6 21 0 0,0
23.05.2018 00:00:00 17,0 14,6 15,6 22,3 16,2 6 3 9 5 NW 1014,4 34 0 0,0
22.05.2018 23:00:00 16,9 14,2 15,8 22,4 16,2 4 2 14 7 SE 1014,4 32 0 0,0
22.05.2018 22:00:00 17,5 13,4 16,2 22,5 16,2 4 2 12 6 S 1013,2 59 0 0,0
22.05.2018 21:00:00 18,2 13,5 17,3 22,5 16,2 7 4 14 8 E 1012,7 60 0 0,0
22.05.2018 20:00:00 21,3 12,4 21,2 22,4 16,2 8 4 12 6 WNW 1011,6 60 7 0,0
22.05.2018 19:00:00 20,7 12,1 21,3 22,1 16,2 10 5 26 14 NE 1011,9 60 38 0,0
22.05.2018 18:00:00 21,2 12,9 21,3 21,8 16,2 15 8 44 24 E 1011,9 30 54 0,0
22.05.2018 17:00:00 20,5 13,5 21,2 21,4 16,2 21 11 40 21 SE 1012,3 41 34 0,0
22.05.2018 16:00:00 25,0 11,9 29,6 20,9 16,2 23 12 36 19 NW 1010,7 24 60 0,0
22.05.2018 15:00:00 24,9 13,8 26,0 20,4 16,2 20 11 32 17 W 1011,0 29 20 0,0
22.05.2018 14:00:00 25,5 12,7 32,7 19,9 16,2 6 3 22 12 WNW 1010,9 15 60 0,0
22.05.2018 13:00:00 24,7 14,5 30,6 19,5 16,2 6 3 16 9 NW 1011,1 20 60 0,0
22.05.2018 12:00:00 23,3 14,3 29,7 19,2 16,2 5 3 11 6 ENE 1011,6 20 60 0,0
22.05.2018 11:00:00 21,4 14,8 25,0 19,1 16,2 7 4 14 8 WSW 1011,9 19 60 0,0
22.05.2018 10:00:00 18,3 14,2 22,2 19,2 16,1 7 4 12 7 SSW 1012,4 12 42 0,0
22.05.2018 09:00:00 16,5 13,2 18,8 19,3 16,1 5 3 10 5 SW 1012,5 16 29 0,0
22.05.2018 08:00:00 15,4 13,2 12,5 19,5 16,1 6 3 10 5 S 1012,5 9 60 0,0
22.05.2018 07:00:00 12,2 11,4 10,0 19,7 16,1 8 4 9 5 SW 1012,6 10 18 0,0
22.05.2018 06:00:00 11,8 11,2 8,3 20,0 16,1 4 2 7 4 WSW 1012,1 7 0 0,0
22.05.2018 05:00:00 11,6 10,8 8,8 20,2 16,1 5 3 6 4 SW 1012,0 12 0 0,0
22.05.2018 04:00:00 12,3 11,5 9,0 20,5 16,1 3 1 7 4 WSW 1011,7 14 0 0,0
22.05.2018 03:00:00 12,8 11,7 9,6 20,7 16,1 3 2 7 4 NE 1011,5 17 0 0,0
22.05.2018 02:00:00 13,0 11,7 10,6 20,9 16,1 4 2 10 5 S 1011,5 23 0 0,0
22.05.2018 01:00:00 14,5 12,4 12,9 21,1 16,1 8 4 13 7 W 1011,7 33 0 0,0
22.05.2018 00:00:00 15,3 12,8 14,2 21,3 16,1 4 2 10 6 WSW 1012,3 44 0 0,0
21.05.2018 23:00:00 15,7 12,4 14,0 21,4 16,1 5 3 11 6 SW 1012,4 30 0 0,0
21.05.2018 22:00:00 16,2 12,6 14,7 21,6 16,1 8 4 16 9 SSW 1012,0 53 0 0,0
21.05.2018 21:00:00 18,3 12,9 17,2 21,7 16,1 3 2 21 11 ESE 1011,6 60 0 0,0
21.05.2018 20:00:00 18,7 12,2 18,4 21,7 16,1 14 7 29 16 W 1011,9 58 0 0,0
21.05.2018 19:00:00 19,6 11,4 19,5 21,6 16,1 17 9 31 17 WNW 1011,7 51 0 0,0
21.05.2018 18:00:00 21,9 12,4 22,0 21,4 16,1 13 7 22 12 NW 1011,7 38 0 0,0
21.05.2018 17:00:00 23,1 11,5 23,4 20,9 16,1 13 7 19 11 NNW 1011,7 38 0 0,0
21.05.2018 16:00:00 23,3 12,9 25,5 20,4 16,1 11 6 26 14 NNE 1011,9 34 28 0,0
21.05.2018 15:00:00 24,2 14,6 32,1 19,8 16,1 10 5 18 10 NNE 1012,4 27 60 0,0
21.05.2018 14:00:00 23,2 12,5 28,9 19,3 16,1 5 3 16 9 NNE 1012,6 20 56 0,0
21.05.2018 13:00:00 22,4 13,7 29,8 18,8 16,0 5 3 13 7 SW 1013,2 12 60 0,0
21.05.2018 12:00:00 21,6 15,2 28,7 18,6 16,1 6 4 16 8 WSW 1013,6 13 60 0,0
21.05.2018 11:00:00 19,5 13,4 23,2 18,4 16,0 6 4 17 9 SSE 1014,3 10 51 0,0
21.05.2018 10:00:00 18,3 13,4 25,4 18,4 16,0 5 3 13 7 S 1014,5 14 60 0,0
21.05.2018 09:00:00 17,5 12,0 18,6 18,5 16,0 3 1 11 6 NW 1014,7 17 60 0,0
21.05.2018 08:00:00 15,4 11,0 15,2 18,7 16,0 8 4 12 6 N 1014,7 33 58 0,0
21.05.2018 07:00:00 13,4 11,3 10,6 18,9 16,1 4 2 8 4 N 1014,9 12 52 0,0
21.05.2018 06:00:00 11,4 10,3 10,5 19,1 16,0 5 3 11 6 NW 1014,9 10 0 0,0
21.05.2018 05:00:00 11,7 10,4 10,2 19,3 16,0 6 4 9 5 W 1014,8 12 0 0,0
21.05.2018 04:00:00 12,1 10,8 11,0 19,5 16,0 8 5 12 6 NW 1014,9 11 0 0,0
21.05.2018 03:00:00 13,0 11,4 11,5 19,7 16,0 7 4 12 7 NNW 1014,9 12 0 0,0
21.05.2018 02:00:00 12,8 11,5 12,0 19,9 16,0 10 5 15 8 NW 1015,2 10 0 0,0
21.05.2018 01:00:00 14,6 11,7 13,1 20,1 16,0 9 5 25 13 NNE 1015,8 18 0 0,0
21.05.2018 00:00:00 14,4 12,6 12,4 20,2 16,0 12 7 20 11 N 1016,0 14 0 0,0
20.05.2018 23:00:00 15,0 13,0 13,9 20,4 16,0 12 6 22 12 NNE 1016,3 12 0 0,0

tt = Température de l'air
td = dewpoint
tt 5cm = Température de l'air 5cm
tt -20cm = Température de l'air -20cm
tt -100cm = Température de l'air -100cm
ff = Vitesse du vent
fx = gusts
dd = Direction du vent
ppp = reduced air pressure
vv = visibility
sd = Ensoleillement
rr = Quantités de précipitations

stations d'obs. à proximité